GPS III SV08

operational
NORAD ID: 64202 Int'l Des: 2025-116 Owner: SFSSC Country: US Constellation: GPS
MEOCIRCULARGNSS

GPS III SV08について

説明を読み込み中...

リアルタイム位置

3D地球を読み込み中...

次回通過

高度履歴

Altitude vs Time

uPlot chart will show altitude changes over time

軌道要素

1 64202U 25116A 25296.74886244 -.00000077 00000-0 00000+0 0 9990
2 64202 55.0698 40.6603 0003315 300.5192 54.3497 2.00561846 3120
Epoch: Oct 23, 2025 • Age: 65 hours

現在のステータス

高度 20188.3 km
速度 3.87 km/s
衛星直下点 12.43°N, 4.85°E
打ち上げ日 May 30, 2025
運用期間 0.4 years
タイプ navigation

技術仕様

分類 Payload
質量 4352.00 kg
乾燥質量 2160.00 kg
総質量 4352.00 kg
長さ 3.40 m
直径 1.80 m
スパン 14.00 m
形状 Box + 2 pan
製造者 LMSSD
バスタイプ A2100
フェーズステータス In Orbit
所有者/国 SFSSC/US

大規模コンステレーション

Loading constellations...